Location: Larrial
(48.2758°N, 4.5331°W)
Time: 10:34:48
(UTC+00:00)

XW-2F - Pass Details

Date: 03 December 2021
Orbit: 495 x 515 km, 97.5° (Epoch: 15 January)

Event Time Altitude Azimuth Distance (km) Brightness Sun altitude
Rises 18:05:05 0° 185° (S) 2,598 ? -15.9°
Reaches altitude 10° 18:07:16 10° 193° (SSW) 1,722 ? -16.2°
Maximum altitude 18:10:44 37° 262° (W) 807 ? -16.8°
Drops below altitude 10° 18:14:16 10° 332° (NNW) 1,748 ? -17.4°
Sets 18:16:29 0° 340° (NNW) 2,643 ? -17.7°
